Weather History for KHJH - March, 2012

Change the Weather History Date:

Thursday, March 1, 2012

  Actual Average Record
Temperature  
Mean Temperature 39 °F -  
Max Temperature 55 °F 47 °F 85 °F (1972)
Min Temperature 23 °F 22 °F -8 °F (1962)
Degree Days  
Heating Degree Days 26    
Moisture  
Dew Point 29 °F    
Average Humidity 70    
Maximum Humidity 93    
Minimum Humidity 37    
Precipitation  
Precipitation 0.00 in - - ()
Sea Level Pressure  
Sea Level Pressure 29.69 in    
Wind  
Wind Speed 5 mph (ENE)    
Max Wind Speed 17 mph    
Max Gust Speed 24 mph    
Visibility 10 miles    
Events      
Averages and records for this station are not official NWS values.
T = Trace of Precipitation, MM = Missing Value Source: NWS Daily Summary

Daily Weather History Graph

Daily Weather History Graph

Search for Another Location

Airport or City:

Trip Planner

Search our weather history database for the weather conditions in past years. The results will help you decide how hot, cold, wet, or windy it might be!

Date:

Astronomy

Mar. 01, 2012 Rise Set
Actual Time 7:03 AM CST 6:22 PM CST
Civil Twilight 6:35 AM CST 6:49 PM CST
Nautical Twilight 6:04 AM CST 7:21 PM CST
Astronomical Twilight 5:32 AM CST 7:52 PM CST
Moon 11:43 AM CST (3/1) 2:03 AM CST (3/1)
Length of Visible Light 12h 14m
Length of Day
11h 19m
First Quarter, 57% of the Moon is Illuminated
Mar 1
First Quarter
Mar 8
Full
Mar 14
Last Quarter
Mar 22
New
Mar 30
First Quarter

Hourly Weather History & Observations

Time (CST) Temp. Windchill Dew Point Humidity Pressure Visibility Wind Dir Wind Speed Gust Speed Precip Events Conditions
12:35 AM 25.7 °F - 21.7 °F 85% 29.83 in 10.0 mi Calm Calm - N/A   Clear
12:55 AM 25.7 °F - 21.9 °F 86% 29.82 in 10.0 mi Calm Calm - N/A   Clear
1:15 AM 24.6 °F - 21.0 °F 86% 29.82 in 10.0 mi Calm Calm - N/A   Clear
1:35 AM 24.8 °F - 21.6 °F 87% 29.81 in 10.0 mi Calm Calm - N/A   Clear
1:55 AM 26.4 °F - 22.8 °F 86% 29.81 in 10.0 mi Calm Calm - N/A   Clear
2:15 AM 26.2 °F - 22.3 °F 85% 29.81 in 10.0 mi Calm Calm - N/A   Clear
2:35 AM 24.3 °F - 21.2 °F 88% 29.81 in 10.0 mi Calm Calm - N/A   Clear
3:15 AM 24.6 °F - 21.9 °F 89% 29.80 in 10.0 mi Calm Calm - N/A   Clear
3:35 AM 23.9 °F - 21.9 °F 92% 29.79 in 10.0 mi Calm Calm - N/A   Clear
3:55 AM 24.4 °F - 22.3 °F 91% 29.78 in 10.0 mi Calm Calm - N/A   Clear
4:15 AM 24.1 °F 19.7 °F 22.3 °F 93% 29.78 in 10.0 mi East 3.5 mph - N/A   Clear
4:35 AM 25.2 °F 18.3 °F 23.0 °F 91% 29.78 in 10.0 mi East 5.8 mph - N/A   Clear
5:15 AM 26.1 °F 21.9 °F 23.4 °F 90% 29.76 in 10.0 mi East 3.5 mph - N/A   Clear
5:35 AM 28.6 °F 21.5 °F 26.4 °F 92% 29.76 in 10.0 mi East 6.9 mph - N/A   Clear
5:55 AM 30.2 °F 21.9 °F 27.5 °F 90% 29.74 in 10.0 mi East 9.2 mph - N/A   Clear
6:15 AM 30.0 °F 21.1 °F 27.3 °F 90% 29.72 in 10.0 mi ESE 10.4 mph - N/A   Clear
6:35 AM 30.0 °F 23.2 °F 27.3 °F 90% 29.71 in 10.0 mi East 6.9 mph - N/A   Clear
6:55 AM 30.0 °F 23.2 °F 27.3 °F 90% 29.71 in 10.0 mi East 6.9 mph - N/A   Clear
7:15 AM 29.8 °F 23.9 °F 27.3 °F 90% 29.70 in 10.0 mi East 5.8 mph - N/A   Clear
7:35 AM 30.2 °F 22.6 °F 27.5 °F 90% 29.70 in 10.0 mi East 8.1 mph - N/A   Clear
7:55 AM 31.1 °F 23.7 °F 28.2 °F 89% 29.70 in 10.0 mi East 8.1 mph - N/A   Clear
8:15 AM 32.0 °F 25.6 °F 28.8 °F 88% 29.70 in 10.0 mi East 6.9 mph - N/A   Clear
8:35 AM 33.3 °F 25.7 °F 29.3 °F 85% 29.68 in 10.0 mi East 9.2 mph - N/A   Clear
8:55 AM 35.1 °F 27.4 °F 30.2 °F 82% 29.68 in 10.0 mi ESE 10.4 mph - N/A   Clear
9:15 AM 36.7 °F 30.5 °F 30.7 °F 79% 29.68 in 10.0 mi East 8.1 mph - N/A   Clear
9:35 AM 38.5 °F 31.1 °F 30.7 °F 74% 29.69 in 10.0 mi East 11.5 mph - N/A   Clear
9:55 AM 40.6 °F 33.8 °F 30.9 °F 68% 29.66 in 10.0 mi ESE 11.5 mph 17.3 mph N/A   Clear
10:15 AM 42.3 °F 35.1 °F 30.7 °F 64% 29.65 in 10.0 mi ESE 13.8 mph - N/A   Clear
10:35 AM 44.1 °F 38.6 °F 31.1 °F 60% 29.64 in 10.0 mi East 10.4 mph - N/A   Clear
11:15 AM 47.7 °F - 31.3 °F 53% 29.63 in 10.0 mi ESE 8.1 mph - N/A   Clear
11:55 AM 51.1 °F - 29.8 °F 44% 29.61 in 10.0 mi SSE 10.4 mph 17.3 mph N/A   Clear
12:15 PM 52.0 °F - 30.2 °F 43% 29.62 in 10.0 mi SSE 6.9 mph - N/A   Clear
1:35 PM 53.6 °F - 30.6 °F 41% 29.59 in 10.0 mi SE 3.5 mph - N/A   Clear
1:55 PM 54.1 °F - 30.7 °F 41% 29.58 in 10.0 mi Calm Calm - N/A   Clear
2:15 PM 54.7 °F - 30.6 °F 40% 29.57 in 10.0 mi Calm Calm - N/A   Clear
2:35 PM 54.7 °F - 29.8 °F 39% 29.56 in 10.0 mi Calm Calm - N/A   Clear
2:55 PM 55.4 °F - 29.8 °F 38% 29.57 in 10.0 mi Calm Calm - N/A   Clear
3:15 PM 55.9 °F - 29.8 °F 37% 29.57 in 10.0 mi North 4.6 mph - N/A   Clear
3:35 PM 55.9 °F - 29.7 °F 37% 29.57 in 10.0 mi NNW 6.9 mph - N/A   Clear
3:55 PM 55.9 °F - 30.4 °F 38% 29.57 in 10.0 mi NNW 11.5 mph - N/A   Clear
4:15 PM 55.4 °F - 30.6 °F 39% 29.57 in 10.0 mi NNE 8.1 mph - N/A   Clear
4:55 PM 54.1 °F - 32.0 °F 43% 29.59 in 10.0 mi North 11.5 mph 17.3 mph N/A   Clear
5:35 PM 51.8 °F - 32.9 °F 49% 29.63 in 10.0 mi North 12.7 mph - N/A   Clear
5:55 PM 50.4 °F - 32.7 °F 51% 29.64 in 10.0 mi North 17.3 mph 20.7 mph N/A   Clear
6:15 PM 48.2 °F - 33.8 °F 58% 29.65 in 10.0 mi North 13.8 mph 20.7 mph N/A   Clear
6:35 PM 45.7 °F 39.1 °F 34.7 °F 65% 29.68 in 10.0 mi North 15.0 mph 18.4 mph N/A   Clear
6:55 PM 44.6 °F 38.4 °F 34.2 °F 67% 29.70 in 10.0 mi North 12.7 mph 19.6 mph N/A   Clear
7:15 PM 43.7 °F 37.7 °F 33.8 °F 68% 29.72 in 10.0 mi North 11.5 mph 18.4 mph N/A   Clear
7:35 PM 43.0 °F 36.0 °F 33.6 °F 70% 29.71 in 10.0 mi North 13.8 mph 18.4 mph N/A   Clear
7:55 PM 41.9 °F 34.6 °F 33.8 °F 73% 29.70 in 10.0 mi North 13.8 mph 19.6 mph N/A   Clear
8:15 PM 41.0 °F 32.8 °F 32.9 °F 73% 29.71 in 10.0 mi NNE 16.1 mph 23.0 mph N/A   Clear
8:35 PM 40.5 °F 31.8 °F 32.2 °F 72% 29.70 in 10.0 mi NNE 17.3 mph 21.9 mph N/A   Clear
8:55 PM 40.1 °F 31.3 °F 32.0 °F 73% 29.70 in 10.0 mi NNE 17.3 mph 24.2 mph N/A   Clear
9:15 PM 40.1 °F 32.4 °F 31.6 °F 72% 29.72 in 10.0 mi NNE 13.8 mph 24.2 mph N/A   Clear
9:35 PM 39.6 °F 33.0 °F 32.0 °F 74% 29.74 in 10.0 mi NNE 10.4 mph - N/A   Clear
9:55 PM 39.2 °F 32.5 °F 32.0 °F 75% 29.74 in 10.0 mi North 10.4 mph - N/A   Mostly Cloudy
10:15 PM 38.5 °F 32.1 °F 32.0 °F 78% 29.74 in 10.0 mi North 9.2 mph - N/A   Overcast
10:35 PM 38.3 °F 30.9 °F 31.8 °F 77% 29.73 in 10.0 mi NNE 11.5 mph - N/A   Overcast
10:55 PM 37.8 °F 31.8 °F 31.1 °F 77% 29.75 in 10.0 mi NNE 8.1 mph - N/A   Overcast
11:55 PM 37.0 °F 29.3 °F 30.9 °F 79% 29.73 in 10.0 mi NNE 11.5 mph - N/A   Overcast